Regional Weather Roundup
Issued by NWS

Home | Current Version | Previous Version | Graphics & Text | Print | Product List | Glossary On
Versions: 1 2 3 4 5 6 7 8 9 10 11 12 13 14 15 16 17 18 19 20 21 22 23 24 25 26 27 28 29 30 31 32 33 34 35 36 37 38 39 40 41 42 43 44 45 46 47 48 49 50
216
ASUS43 KOAX 240602
RWRNE

WEATHER ROUNDUP FOR NEBRASKA
NATIONAL WEATHER SERVICE OMAHA NE
100 AM CDT TUE MAY 24 2016

NOTES: SATELLITE DATA IS BEING USED TO AUGMENT CLOUD COVER ABOVE
       12000 FEET.
       "FAIR" INDICATES FEW OR NO CLOUDS BELOW 12,000 FEET WITH NO
       SIGNIFICANT WEATHER AND/OR OBSTRUCTIONS TO VISIBILITY.

  * THESE STATIONS DO NOT REPORT WEATHER SUCH AS RAIN...SNOW OR FOG.

NEZ001>004-019>022-054>056-240700-
NEBRASKA PANHANDLE

CITY           SKY/WX    TMP DP  RH WIND       PRES   REMARKS
SCOTTSBLUFF    CLEAR     44  41  89 CALM      29.90S
6HR MIN TEMP:  44; 6HR MAX TEMP:  56; 6HR PCP: TRACE;

ALLIANCE       CLEAR     38  38 100 NW5       29.89R WCI  34
6HR MIN TEMP:  37; 6HR MAX TEMP:  59; 6HR PCP:  0.06;

CHADRON        PTCLDY    51  40  65 W9        29.86R
6HR MIN TEMP:  51; 6HR MAX TEMP:  72; 6HR PCP: TRACE;

SIDNEY         PTCLDY    43  40  89 NW8       29.91F
6HR MIN TEMP:  41; 6HR MAX TEMP:  65; 6HR PCP: TRACE;

$$

NEZ057>060-069>072-079>082-240700-
SOUTHWEST NEBRASKA

CITY           SKY/WX    TMP DP  RH WIND       PRES   REMARKS
NORTH PLATTE   CLOUDY    49  45  86 SW3       29.85S
6HR MIN TEMP:  48; 6HR MAX TEMP:  76;

IMPERIAL       PTCLDY    52  45  77 N5        29.85F
6HR MIN TEMP:  51; 6HR MAX TEMP:  75;

MCCOOK         CLEAR     57  46  66 N14       29.83S
6HR MIN TEMP:  56; 6HR MAX TEMP:  79;

$$

NEZ005>010-023>029-035>040-094-240700-
NORTH CENTRAL NEBRASKA

CITY           SKY/WX    TMP DP  RH WIND       PRES   REMARKS
VALENTINE      CLEAR     53  43  68 NW7       29.82R
6HR MIN TEMP:  53; 6HR MAX TEMP:  76;

AINSWORTH      CLEAR     58  43  57 W3        29.82S
BROKEN BOW     CLEAR     54  45  71 NE3       29.84F
6HR MIN TEMP:  53; 6HR MAX TEMP:  78;

ORD            PTCLDY    60  59  96 S5        29.82R FOG
6HR MIN TEMP:  59; 6HR MAX TEMP:  76;

$$

NEZ041-046>049-061>064-073>077-083>087-240700-
SOUTH CENTRAL NEBRASKA

CITY           SKY/WX    TMP DP  RH WIND       PRES   REMARKS
GRAND ISLAND   CLEAR     59  58  96 SE5       29.83R
6HR MIN TEMP:  58; 6HR MAX TEMP:  68; 6HR PCP:  1.86;

HASTINGS       CLOUDY    63  60  90 SE7       29.83S
6HR MIN TEMP:  62; 6HR MAX TEMP:  69; 6HR PCP:  0.06;

KEARNEY *      CLEAR     61  57  88 SE5       29.82F
YORK           CLOUDY    59  57  94 SE5       29.84R
$$

NEZ011>018-030>034-042>045-240700-
NORTHEAST NEBRASKA

CITY           SKY/WX    TMP DP  RH WIND       PRES   REMARKS
NORFOLK        CLEAR     59  58  96 S5        29.79F
6HR MIN TEMP:  59; 6HR MAX TEMP:  73;

ALBION         CLEAR     59  56  89 SE3       29.82R
FREMONT        CLOUDY    64  57  79 S14       29.84R
TEKAMAH        LGT RAIN  65  62  90 SE22G31   29.79F
6HR MIN TEMP:  65; 6HR MAX TEMP:  66; 6HR PCP:  0.20;

$$

NEZ050>053-065>068-078-088>093-240700-
SOUTHEAST NEBRASKA

CITY           SKY/WX    TMP DP  RH WIND       PRES   REMARKS
LINCOLN        CLOUDY    60  58  92 NE5       29.85S
6HR MIN TEMP:  60; 6HR MAX TEMP:  76; 6HR PCP:  0.91;

OMAHA EPPLEY   TSTM      66  63  90 CALM      29.85R
6HR MIN TEMP:  65; 6HR MAX TEMP:  71; 6HR PCP:  0.18;

FALLS CITY     CLOUDY    67  62  84 SE9       29.85F
6HR MIN TEMP:  67; 6HR MAX TEMP:  71;

$$

NEZ044-045-051>053-067-240700-
OMAHA AREA

CITY           SKY/WX    TMP DP  RH WIND       PRES   REMARKS
OMAHA EPPLEY   TSTM      66  63  90 CALM      29.85R
6HR MIN TEMP:  65; 6HR MAX TEMP:  71; 6HR PCP:  0.18;

FREMONT        CLOUDY    64  57  79 S14       29.84R
OFFUTT AFB     TSTM      66  64  94 S13G23    29.84S
$$




USA.gov is the U.S. government's official web portal to all federal, state and local government web resources and services.